Location: Burgerwiesen
(48.6500°N, 15.6167°E)
Time: 07:28:44
(UTC+00:00)

SPOT 5 - Pass Details

Date: 09 April 2020
Orbit: 624 x 814 km, 98.3° (Epoch: 02 June)

Event Time Altitude Azimuth Distance (km) Brightness Sun altitude
Exits shadow 20:31:37 76° 21° (NNE) 650 2.6 -24.8°
Drops below altitude 10° 20:35:41 10° 348° (NNW) 2,011 6.0 -25.2°
Sets 20:37:53 0° 347° (NNW) 2,930 7.0 -25.5°
